Home   Weather   Swakopmund   Past weeks

Flag for Namibia Past Weather in Swakopmund, Namibia — Yesterday and Last 2 Weeks

Now
70 °F

Mild.


Feels Like: 70 °F
Forecast: 67 / 72 °F
Wind: 5 mph from North

Location: Walvis Bay

Current Time: Feb 28, 2017 at 12:11:10 pm

Latest Report: Feb 28, 2017 at 11:00 am


Visibility: N/A

Pressure: 29.89 "Hg

Humidity: 73%

Dew Point: 61 °F

Location of SwakopmundLocation

Past Weather in Swakopmund — Graph

°F

Swakopmund Temperature Yesterday

Maximum temperature yesterday: 75 °F (at 1:00 pm)
Minimum temperature yesterday: 63 °F (at 12:00 am)
Average temperature yesterday: 68 °F

High & Low Weather Summary for the Past Weeks

 TemperatureHumidityPressure
High77 °F (Feb 14, 3:00 pm)94% (Feb 15, 5:00 am)30.01 "Hg (Feb 15, 5:00 am)
Low57 °F (Feb 15, 5:00 am)44% (Feb 14, 3:00 pm)29.74 "Hg (Feb 27, 3:00 pm)
Average65 °F77%29.90 "Hg
* Reported Feb 13 10:00 am — Feb 28 10:00 am, Swakopmund, Weather by CustomWeather, © 2017

Note: Actual official high and low records may vary slightly from our data, if they occured in-between our weather recording intervals... More about our weather records

Advertising

Swakopmund Weather History for the Previous 24 Hours

Scroll right to see more
 ConditionsComfort  
Time TempWeatherWind HumidityBarometerVisibility
10:00 am
Tue, Feb 28
68 °FMild.6 mph78%29.89 "HgN/A
9:00 am66 °FMild.7 mph83%29.89 "HgN/A
8:00 am64 °FMild.6 mph83%29.89 "HgN/A
7:00 am66 °FLow clouds.No wind88%N/AN/A
6:00 am64 °FMild.9 mph83%29.86 "HgN/A
5:00 am64 °FMild.9 mph83%29.83 "HgN/A
4:00 am64 °FMild.12 mph83%29.83 "HgN/A
3:00 am66 °FMild.12 mph78%29.86 "HgN/A
2:00 am64 °FMild.14 mph83%29.86 "HgN/A
1:00 am66 °FMild.17 mph78%29.89 "HgN/A
12:00 am66 °FMild.10 mph78%29.86 "HgN/A
11:00 pm
Mon, Feb 27
66 °FMild.10 mph78%29.86 "HgN/A
10:00 pm66 °FMild.7 mph78%29.86 "HgN/A
9:00 pm66 °FMild.8 mph78%29.80 "HgN/A
7:00 pm72 °FMild.8 mph65%29.74 "HgN/A
6:00 pm75 °FSunny.9 mph61%N/A10 mi
5:00 pm73 °FMild.6 mph61%29.74 "HgN/A
3:00 pm73 °FMild.10 mph61%29.74 "HgN/A
2:00 pm73 °FMild.12 mph57%29.77 "HgN/A
1:00 pm75 °FMild.12 mph57%29.80 "HgN/A
12:00 pm73 °FMild.12 mph61%29.83 "HgN/A
Weather by CustomWeather, © 2017

See weather overviewHow to use our weather pages